This is the latest recevied weather packets stored in our database for station/object KF5JED-13. If no packets are shown the sender has not sent any weather packets the latest 10 day(s).
| Time | Temp. | Humidity | Pressure | Rain* | Wind** | Luminosity | Snow |
|---|---|---|---|---|---|---|---|
| 1777843766 | 25.56° C | 25% | 1013.8 hPa | 0 mm | - | 700 W/m² | - |
| 1777843464 | 25° C | 25% | 1014.1 hPa | 0 mm | - | 589 W/m² | - |
| 1777843161 | 24.44° C | 25% | 1014.1 hPa | 0 mm | - | 384 W/m² | - |
| 1777842858 | 25° C | 25% | 1014.3 hPa | 0 mm | - | 359 W/m² | - |
| 1777842553 | 25° C | 24% | 1014.2 hPa | 0 mm | - | 533 W/m² | - |
| 1777842250 | 25° C | 25% | 1014.3 hPa | 0 mm | - | 576 W/m² | - |
| 1777841944 | 25° C | 25% | 1014.5 hPa | 0 mm | - | 683 W/m² | - |
| 1777841642 | 25° C | 25% | 1014.6 hPa | 0 mm | - | 736 W/m² | - |
| 1777841338 | 25° C | 24% | 1014.6 hPa | 0 mm | - | 612 W/m² | - |
| 1777841035 | 25.56° C | 24% | 1014.8 hPa | 0 mm | - | 778 W/m² | - |
| 1777840733 | 25° C | 24% | 1014.8 hPa | 0 mm | - | 794 W/m² | - |
| 1777840430 | 25° C | 25% | 1015 hPa | 0 mm | - | 787 W/m² | - |
| 1777840126 | 25.56° C | 24% | 1015.2 hPa | 0 mm | - | 817 W/m² | - |
| 1777839825 | 26.11° C | 24% | 1015.2 hPa | 0 mm | - | 818 W/m² | - |
| 1777839523 | 25° C | 25% | 1015.3 hPa | 0 mm | - | 809 W/m² | - |
| 1777839220 | 25° C | 25% | 1015.3 hPa | 0 mm | - | 759 W/m² | - |
| 1777838917 | 24.44° C | 25% | 1015.5 hPa | 0 mm | - | 806 W/m² | - |
| 1777838612 | 25° C | 25% | 1015.5 hPa | 0 mm | - | 781 W/m² | - |
| 1777838311 | 25° C | 26% | 1015.6 hPa | 0 mm | - | 850 W/m² | - |
| 1777838007 | 25° C | 24% | 1015.6 hPa | 0 mm | - | 833 W/m² | - |
| 1777837704 | 24.44° C | 25% | 1016.1 hPa | 0 mm | - | 820 W/m² | - |
| 1777837400 | 24.44° C | 26% | 1016 hPa | 0 mm | - | 775 W/m² | - |
| 1777837096 | 24.44° C | 25% | 1016 hPa | 0 mm | - | 825 W/m² | - |
| 1777836792 | 25.56° C | 24% | 1016.1 hPa | 0 mm | - | 876 W/m² | - |
| 1777836488 | 24.44° C | 26% | 1016.1 hPa | 0 mm | - | 864 W/m² | - |
* Rain latest hour (hover to see other rain measurements)
** Current wind speed in m/s (hover to see current wind gust speed)